N4ASP-13 Weather Reports


time (UTC)temp
F
wind
direction
speed
knots
gust
knots
rain 1hr
in
rain 24hr
in
rain mn
in
humidity
%
barometer
mb
20260505140645 69 162 2.6 8.7 0.00 0.00 0.00 53 1016.4
20260505140546 69 171 2.6 5.2 0.00 0.00 0.00 54 1016.4
20260505140446 69 140 2.6 5.2 0.00 0.00 0.00 56 1016.3
20260505140347 69 140 2.6 5.2 0.00 0.00 0.00 54 1016.4
20260505140246 69 140 2.6 5.2 0.00 0.00 0.00 55 1016.4
20260505140146 69 177 2.6 5.2 0.00 0.00 0.00 56 1016.4
20260505130301 66 196 0.9 4.3 0.00 0.00 0.00 52 1016.1
20260505130202 66 315 0.9 4.3 0.00 0.00 0.00 52 1016.1
20260505125041 66 287 0.9 5.2 0.00 0.00 0.00 53 1016.1
20260505124942 66 287 0.9 5.2 0.00 0.00 0.00 53 1016.1
20260505124841 66 307 0.9 5.2 0.00 0.00 0.00 54 1016.0
20260505124739 66 176 0.9 5.2 0.00 0.00 0.00 52 1016.0
20260505124638 66 164 0.9 5.2 0.00 0.00 0.00 52 1016.0
20260505124536 66 243 0.9 2.6 0.00 0.00 0.00 53 1016.0
20260505124437 66 240 0.9 3.5 0.00 0.00 0.00 53 1016.1
20260505124335 66 240 0.9 3.5 0.00 0.00 0.00 55 1016.1
20260505124235 66 244 0.9 3.5 0.00 0.00 0.00 55 1016.0
20260505124136 66 244 0.9 3.5 0.00 0.00 0.00 56 1016.1
20260505124036 66 244 0.9 3.5 0.00 0.00 0.00 55 1016.0
20260505123936 66 244 0.9 3.5 0.00 0.00 0.00 55 1016.0
20260505123835 65 244 0.9 3.5 0.00 0.00 0.00 54 1016.0
20260505123732 65 244 0.9 3.5 0.00 0.00 0.00 55 1016.0
20260505123629 65 177 0.9 3.5 0.00 0.00 0.00 54 1015.9
20260505123530 65 179 0.9 3.5 0.00 0.00 0.00 55 1015.9
20260505123428 65 128 0.9 2.6 0.00 0.00 0.00 55 1016.0
20260505123327 65 129 0.9 2.6 0.00 0.00 0.00 55 1016.0
20260505123225 65 128 0.9 2.6 0.00 0.00 0.00 55 1016.0
20260505123123 65 128 0.9 2.6 0.00 0.00 0.00 56 1016.0
20260505123021 65 129 0.9 2.6 0.00 0.00 0.00 57 1016.0
20260505122921 65 129 0.9 2.6 0.00 0.00 0.00 56 1015.8
20260505122823 65 144 0.9 2.6 0.00 0.00 0.00 56 1016.0
20260505122722 65 137 0.9 2.6 0.00 0.00 0.00 56 1015.9
20260505122622 64 146 0.9 2.6 0.00 0.00 0.00 57 1015.9
20260505122523 64 227 0.9 2.6 0.00 0.00 0.00 57 1016.0
20260505122421 64 228 0.9 2.6 0.00 0.00 0.00 57 1016.0
20260505122315 64 207 0.9 2.6 0.00 0.00 0.00 55 1016.0
20260505122216 64 19 0.9 2.6 0.00 0.00 0.00 56 1016.0
20260505122117 64 18 0.9 2.6 0.00 0.00 0.00 56 1016.0
20260505122016 64 18 0.9 2.6 0.00 0.00 0.00 56 1016.0
20260505121914 64 22 0.9 2.6 0.00 0.00 0.00 57 1016.0
20260505121812 64 22 0.9 2.6 0.00 0.00 0.00 56 1016.0
20260505121713 64 49 0.9 2.6 0.00 0.00 0.00 56 1016.0
20260505121610 64 49 0.9 2.6 0.00 0.00 0.00 56 1016.0
20260505121510 64 44 0.9 2.6 0.00 0.00 0.00 56 1016.0
20260505121407 64 49 0.9 2.6 0.00 0.00 0.00 56 1016.0
20260505121301 64 50 0.9 2.6 0.00 0.00 0.00 56 1016.0
20260505121201 63 285 0.9 2.6 0.00 0.00 0.00 57 1016.0
20260505121102 63 262 0.9 2.6 0.00 0.00 0.00 57 1016.0
20260505121000 63 265 0.9 2.6 0.00 0.00 0.00 57 1015.9
20260505120859 63 265 0.9 2.6 0.00 0.00 0.00 56 1015.9
20260505120759 63 215 0.9 2.6 0.00 0.00 0.00 57 1015.9
20260505120659 63 255 0.9 2.6 0.00 0.00 0.00 58 1015.9
20260505120600 63 256 0.9 2.6 0.00 0.00 0.00 57 1015.8
20260505120457 63 255 0.0 2.6 0.00 0.00 0.00 58 1015.7
20260505120358 63 257 0.0 2.6 0.00 0.00 0.00 57 1015.8
20260505120257 63 257 0.0 2.6 0.00 0.00 0.00 57 1015.7
20260505120157 63 257 0.0 2.6 0.00 0.00 0.00 57 1015.8
20260505120059 63 196 0.0 0.0 0.00 0.00 0.00 57 1015.7
20260505115954 63 206 0.0 1.7 0.00 0.00 0.00 57 1015.7
20260505115855 62 206 0.0 1.7 0.00 0.00 0.00 58 1015.7
20260505115652 62 176 0.0 2.6 0.00 0.00 0.00 58 1015.7
20260505115551 62 176 0.0 2.6 0.00 0.00 0.00 59 1015.7
20260505115452 62 240 0.0 2.6 0.00 0.00 0.00 59 1015.7
20260505115351 62 240 0.9 2.6 0.00 0.00 0.00 59 1015.7
20260505115252 62 240 0.9 3.5 0.00 0.00 0.00 58 1015.7
20260505115152 62 240 0.9 3.5 0.00 0.00 0.00 58 1015.6
20260505115049 62 240 0.9 3.5 0.00 0.00 0.00 58 1015.8
20260505114948 62 240 0.9 3.5 0.00 0.00 0.00 58 1015.7
20260505114847 62 290 0.9 3.5 0.00 0.00 0.00 58 1015.8
20260505114748 61 291 0.9 3.5 0.00 0.00 0.00 60 1015.7
20260505114646 61 279 0.9 3.5 0.00 0.00 0.00 59 1015.8
20260505114541 61 277 0.9 3.5 0.00 0.00 0.00 59 1015.8
20260505114439 61 258 0.9 3.5 0.00 0.00 0.00 58 1015.7
20260505114340 61 245 0.9 3.5 0.00 0.00 0.00 59 1015.6
20260505114240 61 257 0.9 2.6 0.00 0.00 0.00 59 1015.8
20260505114139 61 252 0.9 2.6 0.00 0.00 0.00 60 1015.7
20260505114030 60 252 0.9 2.6 0.00 0.00 0.00 61 1015.7
20260505113929 60 252 0.9 2.6 0.00 0.00 0.00 59 1015.7
20260505113829 60 253 0.9 2.6 0.00 0.00 0.00 59 1015.6
20260505113731 60 255 0.9 2.6 0.00 0.00 0.00 60 1015.6
20260505113629 60 259 0.0 2.6 0.00 0.00 0.00 60 1015.6
20260505113524 60 259 0.0 2.6 0.00 0.00 0.00 60 1015.6
20260505113422 60 259 0.9 2.6 0.00 0.00 0.00 60 1015.7
20260505113324 60 273 0.0 2.6 0.00 0.00 0.00 60 1015.6
20260505113223 60 244 0.9 1.7 0.00 0.00 0.00 60 1015.6
20260505113123 60 244 0.9 3.5 0.00 0.00 0.00 61 1015.6
20260505113022 59 242 0.9 6.1 0.00 0.00 0.00 62 1015.6
20260505112922 59 269 0.9 6.1 0.00 0.00 0.00 62 1015.7
20260505112821 59 269 0.9 6.1 0.00 0.00 0.00 62 1015.6
20260505112721 59 269 0.9 6.1 0.00 0.00 0.00 61 1015.6
20260505112618 59 268 0.9 6.1 0.00 0.00 0.00 61 1015.7
20260505112508 59 236 0.9 6.1 0.00 0.00 0.00 62 1015.7
20260505112406 59 236 0.9 6.1 0.00 0.00 0.00 61 1015.6
20260505112308 58 230 0.9 6.1 0.00 0.00 0.00 62 1015.6
20260505112207 58 97 0.9 6.1 0.00 0.00 0.00 62 1015.6
20260505112107 58 261 0.9 6.1 0.00 0.00 0.00 61 1015.6
20260505112001 58 240 0.9 5.2 0.00 0.00 0.00 61 1015.7
20260505111902 58 261 0.9 4.3 0.00 0.00 0.00 63 1015.6
20260505111802 58 109 0.9 2.6 0.00 0.00 0.00 62 1015.7
20260505111701 58 109 0.9 2.6 0.00 0.00 0.00 62 1015.7
20260505111601 58 109 0.9 4.3 0.00 0.00 0.00 62 1015.7
20260505111456 58 109 0.9 4.3 0.00 0.00 0.00 63 1015.6
20260505111355 58 109 0.9 4.3 0.00 0.00 0.00 62 1015.6
20260505111256 58 99 0.9 4.3 0.00 0.00 0.00 62 1015.6
20260505111155 58 97 0.9 4.3 0.00 0.00 0.00 62 1015.4
20260505111056 57 104 0.9 4.3 0.00 0.00 0.00 62 1015.6
20260505110950 57 91 0.9 4.3 0.00 0.00 0.00 62 1015.5
20260505110850 57 91 0.9 4.3 0.00 0.00 0.00 64 1015.6
20260505110749 57 163 0.9 4.3 0.00 0.00 0.00 63 1015.5
20260505110648 57 163 0.9 4.3 0.00 0.00 0.00 64 1015.5
20260505110546 57 187 0.9 3.5 0.00 0.00 0.00 64 1015.6
20260505110441 57 187 0.9 3.5 0.00 0.00 0.00 64 1015.6
20260505110339 57 187 0.9 3.5 0.00 0.00 0.00 65 1015.6
20260505110240 57 187 0.9 3.5 0.00 0.00 0.00 64 1015.5
20260505110140 57 189 0.9 3.5 0.00 0.00 0.00 64 1015.6
20260505102140 55 183 2.6 8.7 0.00 0.00 0.00 67 1015.4
20260505102039 55 167 2.6 8.7 0.00 0.00 0.00 67 1015.3
20260505101939 55 151 2.6 8.7 0.00 0.00 0.00 67 1015.3
20260505101839 55 151 2.6 8.7 0.00 0.00 0.00 67 1015.1
20260505101738 55 165 2.6 8.7 0.00 0.00 0.00 67 1015.1
20260505101637 55 138 2.6 8.7 0.00 0.00 0.00 67 1015.1
20260505101535 55 138 3.5 8.7 0.00 0.00 0.00 67 1015.1
20260505101434 55 118 2.6 8.7 0.00 0.00 0.00 66 1015.3
20260505101327 55 170 2.6 8.7 0.00 0.00 0.00 67 1015.1
20260505101227 55 153 2.6 6.1 0.00 0.00 0.00 66 1015.1
20260505101128 55 164 2.6 6.1 0.00 0.00 0.00 66 1015.3
20260505101027 55 160 2.6 6.1 0.00 0.00 0.00 66 1015.3
20260505100928 55 151 2.6 6.1 0.00 0.00 0.00 66 1015.3
20260505100820 55 140 2.6 6.1 0.00 0.00 0.00 66 1015.1
20260505100718 56 126 2.6 6.1 0.00 0.00 0.00 66 1015.3
20260505100619 56 150 2.6 6.1 0.00 0.00 0.00 66 1015.3
20260505100521 56 140 2.6 6.1 0.00 0.00 0.00 66 1015.3
20260505100418 56 141 2.6 6.1 0.00 0.00 0.00 66 1015.3
20260505100317 56 146 2.6 6.1 0.00 0.00 0.00 66 1015.3
20260505100214 56 137 1.7 6.1 0.00 0.00 0.00 66 1015.3
20260505100115 56 114 1.7 6.1 0.00 0.00 0.00 66 1015.3
20260505100014 56 115 1.7 6.1 0.00 0.00 0.00 66 1015.3
20260505095911 56 115 2.6 6.1 0.00 0.00 0.00 66 1015.3
20260505095805 56 95 2.6 6.1 0.00 0.00 0.00 65 1015.3
20260505095705 56 133 2.6 5.2 0.00 0.00 0.00 65 1015.3
20260505095606 56 132 2.6 7.8 0.00 0.00 0.00 65 1015.1
20260505095505 56 174 2.6 7.8 0.00 0.00 0.00 65 1015.3
20260505095405 55 170 2.6 7.8 0.00 0.00 0.00 66 1015.3
20260505095254 56 124 2.6 7.8 0.00 0.00 0.00 66 1015.1
20260505095155 56 123 2.6 7.8 0.00 0.00 0.00 66 1015.1
20260505095055 56 136 3.5 7.8 0.00 0.00 0.00 65 1015.3
20260505094956 56 166 3.5 7.8 0.00 0.00 0.00 66 1015.1
20260505094855 56 122 3.5 7.8 0.00 0.00 0.00 66 1015.1
20260505094751 56 130 3.5 7.8 0.00 0.00 0.00 66 1015.1
20260505094651 56 228 3.5 7.8 0.00 0.00 0.00 66 1015.1
20260505094551 56 129 3.5 7.8 0.00 0.00 0.00 66 1015.1
20260505094452 56 131 3.5 7.8 0.00 0.00 0.00 66 1015.3
20260505094349 56 111 3.5 7.8 0.00 0.00 0.00 65 1015.3
20260505094245 56 155 3.5 7.8 0.00 0.00 0.00 65 1015.1
20260505094144 56 136 2.6 7.0 0.00 0.00 0.00 65 1015.3
20260505094044 56 138 2.6 5.2 0.00 0.00 0.00 65 1015.3
20260505093943 56 141 2.6 5.2 0.00 0.00 0.00 65 1015.4
20260505093844 56 162 2.6 5.2 0.00 0.00 0.00 64 1015.3
20260505093733 56 161 1.7 5.2 0.00 0.00 0.00 64 1015.3
20260505093634 57 162 1.7 5.2 0.00 0.00 0.00 64 1015.3
20260505093533 57 170 1.7 9.6 0.00 0.00 0.00 64 1015.3
20260505093433 57 134 1.7 9.6 0.00 0.00 0.00 64 1015.3
20260505093334 57 140 1.7 9.6 0.00 0.00 0.00 63 1015.3
20260505093230 57 138 1.7 9.6 0.00 0.00 0.00 63 1015.3
20260505093127 57 146 1.7 9.6 0.00 0.00 0.00 63 1015.3
20260505093028 57 181 1.7 9.6 0.00 0.00 0.00 63 1015.3
20260505092927 57 149 1.7 9.6 0.00 0.00 0.00 63 1015.1
20260505092827 57 149 1.7 9.6 0.00 0.00 0.00 63 1015.3
20260505092727 57 149 1.7 9.6 0.00 0.00 0.00 63 1015.1
20260505092625 57 153 1.7 9.6 0.00 0.00 0.00 63 1015.3
20260505092525 57 140 1.7 6.1 0.00 0.00 0.00 63 1015.1
20260505092423 57 112 1.7 6.1 0.00 0.00 0.00 62 1015.3
20260505092322 57 108 1.7 6.1 0.00 0.00 0.00 62 1015.1
20260505092211 57 94 1.7 6.1 0.00 0.00 0.00 62 1015.3
20260505092112 57 88 1.7 6.1 0.00 0.00 0.00 62 1015.1
20260505092010 57 153 1.7 4.3 0.00 0.00 0.00 62 1015.3
20260505091912 57 153 1.7 4.3 0.00 0.00 0.00 62 1015.3
20260505091812 57 153 1.7 5.2 0.00 0.00 0.00 62 1015.3
20260505091708 57 153 1.7 5.2 0.00 0.00 0.00 62 1015.3
20260505091605 57 155 1.7 5.2 0.00 0.00 0.00 62 1015.3
20260505091506 57 158 1.7 5.2 0.00 0.00 0.00 62 1015.3
20260505091405 57 117 1.7 5.2 0.00 0.00 0.00 62 1015.3
20260505091306 57 93 1.7 5.2 0.00 0.00 0.00 62 1015.1
20260505091202 57 94 1.7 5.2 0.00 0.00 0.00 62 1015.3
20260505091059 57 148 1.7 5.2 0.00 0.00 0.00 62 1015.1
20260505091000 57 149 1.7 5.2 0.00 0.00 0.00 62 1015.0
20260505090901 57 169 1.7 5.2 0.00 0.00 0.00 62 1015.0
20260505090759 57 290 1.7 5.2 0.00 0.00 0.00 62 1015.1
20260505090651 58 220 1.7 5.2 0.00 0.00 0.00 62 1015.1
20260505090551 58 154 0.9 5.2 0.00 0.00 0.00 62 1015.1
20260505090452 58 159 0.9 5.2 0.00 0.00 0.00 62 1015.1
20260505090352 58 160 0.9 5.2 0.00 0.00 0.00 61 1015.1
20260505090250 58 161 0.9 5.2 0.00 0.00 0.00 62 1015.1
20260505090148 58 152 0.9 4.3 0.00 0.00 0.00 62 1015.1
20260505090047 58 156 0.9 3.5 0.00 0.00 0.00 61 1015.0
20260505085946 58 162 0.9 3.5 0.00 0.00 0.00 61 1015.1
20260505085845 58 218 0.9 3.5 0.00 0.00 0.00 61 1015.1
20260505085744 58 218 0.9 3.5 0.00 0.00 0.00 61 1015.1
20260505085636 58 218 0.9 3.5 0.00 0.00 0.00 61 1015.1
20260505085537 58 133 0.9 3.5 0.00 0.00 0.00 61 1015.1
20260505085438 58 133 1.7 3.5 0.00 0.00 0.00 61 1015.0
20260505085337 58 126 1.7 5.2 0.00 0.00 0.00 61 1015.0
20260505085237 58 126 1.7 5.2 0.00 0.00 0.00 61 1015.1
20260505085129 58 126 1.7 5.2 0.00 0.00 0.00 61 1015.0
20260505085028 58 86 1.7 5.2 0.00 0.00 0.00 61 1015.0
20260505084930 58 25 1.7 5.2 0.00 0.00 0.00 61 1015.1
20260505084829 58 25 1.7 5.2 0.00 0.00 0.00 61 1015.0
20260505084727 58 22 1.7 5.2 0.00 0.00 0.00 61 1015.0
20260505084624 58 155 1.7 5.2 0.00 0.00 0.00 61 1015.0
20260505084524 58 155 1.7 5.2 0.00 0.00 0.00 61 1014.9
20260505084422 58 124 1.7 5.2 0.00 0.00 0.00 61 1015.0
20260505084324 58 173 1.7 5.2 0.00 0.00 0.00 61 1015.0
20260505084221 58 177 1.7 5.2 0.00 0.00 0.00 61 1014.9
20260505084117 58 124 1.7 5.2 0.00 0.00 0.00 61 1014.8
20260505084016 58 126 1.7 5.2 0.00 0.00 0.00 61 1014.8
20260505083916 58 186 1.7 5.2 0.00 0.00 0.00 61 1014.7
20260505083814 58 165 1.7 5.2 0.00 0.00 0.00 61 1014.7
20260505083715 57 172 1.7 5.2 0.00 0.00 0.00 62 1014.7
20260505083605 57 157 1.7 5.2 0.00 0.00 0.00 62 1014.8
20260505083504 57 49 1.7 5.2 0.00 0.00 0.00 62 1014.7
20260505083404 57 67 1.7 5.2 0.00 0.00 0.00 62 1014.7
20260505083306 57 177 1.7 5.2 0.00 0.00 0.00 62 1014.7
20260505083206 57 191 1.7 5.2 0.00 0.00 0.00 63 1014.8
20260505083059 57 211 1.7 5.2 0.00 0.00 0.00 62 1014.8
20260505082959 57 212 2.6 5.2 0.00 0.00 0.00 63 1014.8
20260505082859 57 205 2.6 5.2 0.00 0.00 0.00 62 1014.7
20260505082759 57 209 2.6 6.1 0.00 0.00 0.00 63 1014.8
20260505082659 57 120 2.6 8.7 0.00 0.00 0.00 63 1014.7
20260505082554 57 139 2.6 8.7 0.00 0.00 0.00 63 1014.8
20260505082453 57 105 2.6 8.7 0.00 0.00 0.00 63 1014.7
20260505082353 57 105 2.6 8.7 0.00 0.00 0.00 63 1014.8
20260505082252 57 150 2.6 8.7 0.00 0.00 0.00 63 1014.7
20260505082153 57 134 2.6 8.7 0.00 0.00 0.00 63 1014.7
20260505082042 57 186 2.6 8.7 0.00 0.00 0.00 63 1014.8
20260505081942 57 188 2.6 8.7 0.00 0.00 0.00 63 1014.8
20260505081844 57 157 2.6 8.7 0.00 0.00 0.00 62 1014.8
20260505081743 57 165 1.7 8.7 0.00 0.00 0.00 62 1014.8
20260505081643 57 134 1.7 6.1 0.00 0.00 0.00 62 1014.7
20260505081539 57 107 1.7 6.1 0.00 0.00 0.00 62 1014.7
20260505081439 57 135 1.7 6.1 0.00 0.00 0.00 62 1014.7
20260505081339 57 135 1.7 6.1 0.00 0.00 0.00 62 1014.7
20260505081239 57 147 1.7 6.1 0.00 0.00 0.00 62 1014.7
20260505081138 57 148 1.7 6.1 0.00 0.00 0.00 62 1014.7
20260505081032 58 155 1.7 5.2 0.00 0.00 0.00 61 1014.7
20260505080931 58 139 2.6 5.2 0.00 0.00 0.00 61 1014.7
20260505080831 58 140 2.6 5.2 0.00 0.00 0.00 61 1014.7
20260505080732 58 140 2.6 5.2 0.00 0.00 0.00 61 1014.7
20260505080632 58 140 2.6 5.2 0.00 0.00 0.00 61 1014.7
20260505080524 58 138 2.6 5.2 0.00 0.00 0.00 61 1014.7
20260505080421 58 138 2.6 5.2 0.00 0.00 0.00 60 1014.8
20260505080321 58 120 2.6 5.2 0.00 0.00 0.00 60 1014.7
20260505080221 58 146 2.6 5.2 0.00 0.00 0.00 60 1014.7
20260505080122 59 134 2.6 5.2 0.00 0.00 0.00 59 1014.7
20260505080015 59 164 1.7 5.2 0.00 0.00 0.00 59 1014.7
20260505075914 59 153 1.7 5.2 0.00 0.00 0.00 59 1014.7
20260505075816 59 85 2.6 9.6 0.00 0.00 0.00 59 1014.6
20260505075716 59 151 2.6 9.6 0.00 0.00 0.00 58 1014.7
20260505075615 59 151 2.6 9.6 0.00 0.00 0.00 58 1014.6
20260505075511 59 151 2.6 9.6 0.00 0.00 0.00 58 1014.5
20260505075411 59 151 2.6 9.6 0.00 0.00 0.00 58 1014.6
20260505075311 60 141 2.6 9.6 0.00 0.00 0.00 58 1014.6
20260505075212 60 172 2.6 9.6 0.00 0.00 0.00 58 1014.6
20260505075110 60 175 2.6 9.6 0.00 0.00 0.00 58 1014.5
20260505075000 60 153 2.6 9.6 0.00 0.00 0.00 57 1014.5
20260505074859 60 178 2.6 9.6 0.00 0.00 0.00 57 1014.5
20260505074759 60 140 2.6 7.0 0.00 0.00 0.00 57 1014.5
20260505074659 60 127 2.6 7.0 0.00 0.00 0.00 57 1014.5
20260505074559 60 169 2.6 7.0 0.00 0.00 0.00 57 1014.5
20260505074455 60 132 2.6 7.0 0.00 0.00 0.00 57 1014.5
20260505074355 60 132 2.6 7.0 0.00 0.00 0.00 57 1014.4
20260505074256 60 159 2.6 7.0 0.00 0.00 0.00 57 1014.4
20260505074155 60 144 2.6 7.0 0.00 0.00 0.00 57 1014.5
20260505074054 60 171 1.7 7.0 0.00 0.00 0.00 57 1014.5
20260505073956 60 170 1.7 7.0 0.00 0.00 0.00 57 1014.4
20260505073855 60 171 2.6 7.0 0.00 0.00 0.00 57 1014.4
20260505073754 60 171 2.6 7.0 0.00 0.00 0.00 57 1014.3
20260505073652 60 287 2.6 7.0 0.00 0.00 0.00 57 1014.3
20260505073553 60 96 2.6 7.0 0.00 0.00 0.00 56 1014.3
20260505073452 60 146 2.6 7.0 0.00 0.00 0.00 56 1014.3
20260505073353 60 62 2.6 7.0 0.00 0.00 0.00 56 1014.2
20260505073253 60 24 2.6 7.0 0.00 0.00 0.00 56 1014.2
20260505073152 60 38 2.6 7.0 0.00 0.00 0.00 57 1014.3
20260505073052 60 119 2.6 7.0 0.00 0.00 0.00 57 1014.2
20260505072953 60 123 2.6 7.0 0.00 0.00 0.00 57 1014.2
20260505072854 60 60 2.6 7.0 0.00 0.00 0.00 57 1014.2
20260505072749 60 164 2.6 7.0 0.00 0.00 0.00 56 1014.1
20260505072648 60 355 2.6 7.0 0.00 0.00 0.00 56 1014.2
20260505072548 60 76 2.6 7.0 0.00 0.00 0.00 56 1014.3
20260505072448 60 185 1.7 7.0 0.00 0.00 0.00 56 1014.2
20260505072347 60 61 2.6 7.0 0.00 0.00 0.00 56 1014.3
20260505072243 60 260 2.6 7.0 0.00 0.00 0.00 56 1014.2
20260505072140 60 286 2.6 6.1 0.00 0.00 0.00 56 1014.2
20260505072040 61 173 2.6 6.1 0.00 0.00 0.00 56 1014.2
20260505071939 61 5 2.6 7.8 0.00 0.00 0.00 56 1014.1
20260505071839 61 77 2.6 7.8 0.00 0.00 0.00 56 1014.2
20260505071738 61 134 2.6 7.8 0.00 0.00 0.00 56 1014.1
20260505071640 61 97 2.6 9.6 0.00 0.00 0.00 56 1014.2
20260505071538 61 145 3.5 9.6 0.00 0.00 0.00 56 1014.2
20260505071437 61 35 2.6 9.6 0.00 0.00 0.00 56 1014.2
20260505071338 61 161 3.5 9.6 0.00 0.00 0.00 56 1014.1
20260505071236 61 290 3.5 9.6 0.00 0.00 0.00 56 1014.0
20260505071138 61 84 3.5 9.6 0.00 0.00 0.00 56 1014.1
20260505071035 61 165 2.6 9.6 0.00 0.00 0.00 56 1014.1
20260505070934 61 42 2.6 9.6 0.00 0.00 0.00 56 1014.2
20260505070835 61 159 2.6 9.6 0.00 0.00 0.00 56 1014.2
20260505070735 61 296 2.6 9.6 0.00 0.00 0.00 56 1014.3
20260505070634 61 331 2.6 7.0 0.00 0.00 0.00 55 1014.1
20260505070535 61 350 2.6 7.0 0.00 0.00 0.00 56 1014.2
20260505070433 61 266 2.6 7.0 0.00 0.00 0.00 56 1014.2
20260505070332 61 165 2.6 7.0 0.00 0.00 0.00 55 1014.2
20260505070230 61 140 2.6 7.8 0.00 0.00 0.00 55 1014.3
20260505070132 61 158 2.6 7.8 0.00 0.00 0.00 55 1014.3
20260505070025 61 150 2.6 7.8 0.00 0.00 0.00 55 1014.2
20260505065926 61 70 2.6 7.8 0.00 0.00 0.00 55 1014.3
20260505065826 61 101 2.6 7.8 0.00 0.00 0.00 55 1014.3
20260505065726 61 89 2.6 7.8 0.00 0.00 0.00 55 1014.3
20260505065625 61 163 2.6 7.8 0.00 0.00 0.00 55 1014.3
20260505065521 61 182 2.6 7.8 0.00 0.00 0.00 55 1014.3
20260505065421 61 184 2.6 7.8 0.00 0.00 0.00 55 1014.3
20260505065320 61 116 3.5 8.7 0.00 0.00 0.00 55 1014.3
20260505065222 61 120 3.5 8.7 0.00 0.00 0.00 55 1014.2
20260505065119 61 198 3.5 8.7 0.00 0.00 0.00 55 1014.2
20260505065016 61 78 3.5 11.3 0.00 0.00 0.00 55 1014.2
20260505064913 61 154 3.5 11.3 0.00 0.00 0.00 55 1014.3
20260505064812 61 170 3.5 11.3 0.00 0.00 0.00 55 1014.3
20260505064714 61 69 3.5 11.3 0.00 0.00 0.00 55 1014.3
20260505064613 61 165 3.5 11.3 0.00 0.00 0.00 55 1014.3
20260505064513 61 115 4.3 11.3 0.00 0.00 0.00 55 1014.1
20260505064412 61 166 3.5 11.3 0.00 0.00 0.00 56 1014.3
20260505064312 60 149 3.5 11.3 0.00 0.00 0.00 56 1014.3
20260505064213 60 180 3.5 11.3 0.00 0.00 0.00 55 1014.2
20260505064113 60 142 2.6 8.7 0.00 0.00 0.00 55 1014.1
20260505064013 60 115 2.6 11.3 0.00 0.00 0.00 55 1014.2
20260505063913 60 293 3.5 11.3 0.00 0.00 0.00 55 1014.2
20260505063813 60 194 3.5 11.3 0.00 0.00 0.00 56 1014.2
20260505063710 60 125 2.6 11.3 0.00 0.00 0.00 56 1014.3
20260505063610 60 55 2.6 11.3 0.00 0.00 0.00 56 1014.3
20260505063510 60 159 2.6 11.3 0.00 0.00 0.00 56 1014.3
20260505063411 60 187 2.6 11.3 0.00 0.00 0.00 56 1014.2
20260505063307 60 134 2.6 11.3 0.00 0.00 0.00 56 1014.3
20260505063207 60 132 2.6 11.3 0.00 0.00 0.00 56 1014.2
20260505063107 60 244 3.5 11.3 0.00 0.00 0.00 56 1014.3
20260505063007 60 136 2.6 8.7 0.00 0.00 0.00 56 1014.3
20260505062906 60 170 2.6 8.7 0.00 0.00 0.00 56 1014.4
20260505062808 60 109 2.6 8.7 0.00 0.00 0.00 56 1014.3
20260505062706 60 157 2.6 8.7 0.00 0.00 0.00 56 1014.3
20260505062608 60 138 2.6 8.7 0.00 0.00 0.00 56 1014.4
20260505062508 60 145 2.6 8.7 0.00 0.00 0.00 56 1014.3
20260505062407 60 115 3.5 8.7 0.00 0.00 0.00 56 1014.2
20260505062308 60 229 2.6 8.7 0.00 0.00 0.00 56 1014.3
20260505062207 60 197 3.5 9.6 0.00 0.00 0.00 56 1014.4
20260505062106 60 188 3.5 9.6 0.00 0.00 0.00 56 1014.3
20260505062008 60 138 3.5 9.6 0.00 0.00 0.00 56 1014.4
20260505061904 60 158 3.5 9.6 0.00 0.00 0.00 56 1014.4
20260505061804 60 234 3.5 9.6 0.00 0.00 0.00 56 1014.3
20260505061706 60 204 2.6 9.6 0.00 0.00 0.00 56 1014.4
20260505061558 60 171 3.5 9.6 0.00 0.00 0.00 56 1014.4
20260505061459 60 174 3.5 9.6 0.00 0.00 0.00 56 1014.4
20260505061358 60 167 3.5 9.6 0.00 0.00 0.00 57 1014.4
20260505061300 60 178 2.6 9.6 0.00 0.00 0.00 56 1014.5
20260505061159 60 248 2.6 7.8 0.00 0.00 0.00 56 1014.5
20260505061053 60 149 2.6 7.8 0.00 0.00 0.00 56 1014.5
20260505060953 60 269 2.6 7.8 0.00 0.00 0.00 56 1014.5
20260505060852 60 355 2.6 7.8 0.00 0.00 0.00 56 1014.5
20260505060753 60 55 2.6 7.8 0.00 0.00 0.00 56 1014.5
20260505060653 60 141 2.6 7.8 0.00 0.00 0.00 57 1014.5
20260505060546 60 78 2.6 7.8 0.00 0.00 0.00 56 1014.5
20260505060446 60 147 2.6 9.6 0.00 0.00 0.00 56 1014.5
20260505060348 60 140 2.6 9.6 0.00 0.00 0.00 56 1014.4
20260505060245 60 159 2.6 9.6 0.00 0.00 0.00 56 1014.5
20260505060144 60 163 2.6 9.6 0.00 0.00 0.00 56 1014.5
20260505060046 60 136 2.6 9.6 0.00 0.00 0.00 56 1014.5
20260505055945 60 213 2.6 9.6 0.00 0.00 0.00 56 1014.4
20260505055845 60 98 2.6 9.6 0.00 0.00 0.00 56 1014.5
20260505055745 60 140 2.6 9.6 0.00 0.00 0.00 56 1014.6
20260505055645 60 130 2.6 9.6 0.00 0.00 0.00 56 1014.5
20260505055544 60 109 2.6 9.6 0.00 0.00 0.00 56 1014.5
20260505055445 60 135 2.6 7.0 0.00 0.00 0.00 56 1014.5
20260505055344 60 88 3.5 7.8 0.00 0.00 0.00 56 1014.5
20260505055245 60 146 3.5 8.7 0.00 0.00 0.00 56 1014.6
20260505055145 60 133 3.5 8.7 0.00 0.00 0.00 56 1014.6
20260505055044 60 158 3.5 8.7 0.00 0.00 0.00 56 1014.7
20260505054946 60 341 3.5 8.7 0.00 0.00 0.00 56 1014.6
20260505054835 60 113 3.5 8.7 0.00 0.00 0.00 56 1014.6
20260505054734 60 160 3.5 8.7 0.00 0.00 0.00 56 1014.6
20260505054636 60 167 3.5 8.7 0.00 0.00 0.00 55 1014.7
20260505054535 60 194 3.5 8.7 0.00 0.00 0.00 56 1014.6
20260505054435 60 144 3.5 8.7 0.00 0.00 0.00 55 1014.6
20260505054329 60 140 2.6 8.7 0.00 0.00 0.00 55 1014.5
20260505054228 60 172 2.6 7.8 0.00 0.00 0.00 55 1014.7
20260505054129 60 123 2.6 7.8 0.00 0.00 0.00 55 1014.6
20260505054026 60 149 2.6 7.8 0.00 0.00 0.00 55 1014.6
20260505053927 61 190 2.6 7.8 0.00 0.00 0.00 55 1014.5
20260505053823 61 135 2.6 7.8 0.00 0.00 0.00 55 1014.5
20260505053724 61 128 2.6 7.8 0.00 0.00 0.00 55 1014.5
20260505053622 61 169 2.6 8.7 0.00 0.00 0.00 55 1014.5
20260505053523 61 144 2.6 8.7 0.00 0.00 0.00 55 1014.5
20260505053422 61 148 2.6 8.7 0.00 0.00 0.00 55 1014.5
20260505053322 61 225 2.6 8.7 0.00 0.00 0.00 55 1014.5
20260505053222 61 157 2.6 8.7 0.00 0.00 0.00 55 1014.7
20260505053124 61 327 2.6 8.7 0.00 0.00 0.00 54 1014.5
20260505053022 61 180 2.6 8.7 0.00 0.00 0.00 55 1014.5
20260505052922 61 164 2.6 13.0 0.00 0.00 0.00 54 1014.5
20260505052822 61 171 2.6 13.0 0.00 0.00 0.00 54 1014.6
20260505052724 61 126 2.6 13.0 0.00 0.00 0.00 54 1014.6
20260505052623 61 126 2.6 13.0 0.00 0.00 0.00 54 1014.6
20260505052521 61 132 2.6 13.0 0.00 0.00 0.00 54 1014.6
20260505052419 61 131 2.6 13.0 0.00 0.00 0.00 54 1014.6
20260505052319 61 187 2.6 13.0 0.00 0.00 0.00 54 1014.6
20260505052218 61 140 2.6 13.0 0.00 0.00 0.00 54 1014.6
20260505052120 61 139 2.6 13.0 0.00 0.00 0.00 54 1014.7
20260505052020 61 142 2.6 13.0 0.00 0.00 0.00 54 1014.6
20260505051918 61 288 2.6 10.4 0.00 0.00 0.00 54 1014.6
20260505051820 61 128 2.6 10.4 0.00 0.00 0.00 54 1014.7
20260505051719 61 167 3.5 10.4 0.00 0.00 0.00 54 1014.7
20260505051618 62 179 3.5 10.4 0.00 0.00 0.00 53 1014.6
20260505051518 62 163 3.5 10.4 0.00 0.00 0.00 53 1014.6
20260505051420 62 228 3.5 10.4 0.00 0.00 0.00 53 1014.6
20260505051320 62 234 3.5 10.4 0.00 0.00 0.00 53 1014.6
20260505051219 62 187 3.5 10.4 0.00 0.00 0.00 54 1014.4
20260505051120 62 177 3.5 9.6 0.00 0.00 0.00 53 1014.6
20260505051019 62 74 3.5 9.6 0.00 0.00 0.00 53 1014.5
20260505050918 62 161 3.5 9.6 0.00 0.00 0.00 53 1014.5
20260505050820 62 168 4.3 9.6 0.00 0.00 0.00 53 1014.4
20260505050718 62 165 4.3 8.7 0.00 0.00 0.00 53 1014.3
20260505050620 62 137 4.3 9.6 0.00 0.00 0.00 53 1014.4
20260505050520 62 151 4.3 9.6 0.00 0.00 0.00 53 1014.3
20260505050418 62 309 4.3 9.6 0.00 0.00 0.00 53 1014.3
20260505050320 62 139 4.3 13.0 0.00 0.00 0.00 53 1014.4
20260505050219 62 158 4.3 13.0 0.00 0.00 0.00 53 1014.4
20260505050119 62 138 4.3 13.0 0.00 0.00 0.00 53 1014.3
20260505041710 62 165 3.5 9.6 0.00 0.00 0.00 52 1014.5
20260505041611 62 167 3.5 9.6 0.00 0.00 0.00 51 1014.5
20260505041512 62 180 2.6 9.6 0.00 0.00 0.00 51 1014.4
20260505041411 62 161 2.6 9.6 0.00 0.00 0.00 52 1014.4
20260505041310 62 105 2.6 9.6 0.00 0.00 0.00 51 1014.5
20260505041210 62 192 2.6 9.6 0.00 0.00 0.00 51 1014.6
20260505041110 63 117 3.5 9.6 0.00 0.00 0.00 51 1014.5
20260505041010 62 146 3.5 9.6 0.00 0.00 0.00 51 1014.6
20260505040910 62 169 3.5 9.6 0.00 0.00 0.00 51 1014.6
20260505040811 62 175 3.5 9.6 0.00 0.00 0.00 51 1014.7
20260505040711 62 209 3.5 9.6 0.00 0.00 0.00 51 1014.7
20260505040611 63 234 2.6 9.6 0.00 0.00 0.00 51 1014.6
20260505040511 63 144 3.5 9.6 0.00 0.00 0.00 51 1014.6
20260505040411 62 238 3.5 9.6 0.00 0.00 0.00 51 1014.6
20260505040311 62 131 3.5 9.6 0.00 0.00 0.00 51 1014.6
20260505040211 63 263 3.5 9.6 0.00 0.00 0.00 51 1014.7
20260505040107 62 214 3.5 9.6 0.00 0.00 0.00 51 1014.7
20260505040004 63 165 3.5 9.6 0.00 0.00 0.00 51 1014.7
20260505035903 62 117 3.5 9.6 0.00 0.00 0.00 52 1014.8
20260505035802 62 133 3.5 9.6 0.00 0.00 0.00 51 1014.7
20260505035703 62 96 3.5 9.6 0.00 0.00 0.00 51 1014.6
20260505035602 63 172 3.5 9.6 0.00 0.00 0.00 52 1014.7
20260505035503 63 188 3.5 9.6 0.00 0.00 0.00 51 1014.6
20260505035402 63 159 3.5 9.6 0.00 0.00 0.00 52 1014.7
20260505035304 63 137 3.5 9.6 0.00 0.00 0.00 52 1014.7
20260505035202 63 241 3.5 9.6 0.00 0.00 0.00 51 1014.7
20260505035103 63 148 3.5 9.6 0.00 0.00 0.00 52 1014.9
20260505035004 62 177 3.5 10.4 0.00 0.00 0.00 51 1014.8
20260505034903 63 269 3.5 10.4 0.00 0.00 0.00 51 1014.8
20260505034804 62 223 3.5 10.4 0.00 0.00 0.00 52 1014.8
20260505034703 62 204 3.5 10.4 0.00 0.00 0.00 52 1014.8
20260505034603 62 160 3.5 10.4 0.00 0.00 0.00 52 1014.9
20260505034504 62 182 3.5 10.4 0.00 0.00 0.00 52 1014.9
20260505034357 63 132 3.5 10.4 0.00 0.00 0.00 52 1014.8
20260505034256 63 113 3.5 10.4 0.00 0.00 0.00 52 1014.9
20260505034158 63 138 3.5 10.4 0.00 0.00 0.00 52 1014.8
20260505034058 63 161 3.5 10.4 0.00 0.00 0.00 52 1014.8
20260505033958 63 138 3.5 9.6 0.00 0.00 0.00 52 1014.8
20260505033858 63 163 3.5 11.3 0.00 0.00 0.00 52 1014.8
20260505033757 63 153 3.5 11.3 0.00 0.00 0.00 52 1014.7
20260505033656 63 167 3.5 11.3 0.00 0.00 0.00 52 1014.8
20260505033558 63 120 3.5 11.3 0.00 0.00 0.00 52 1014.8
20260505033457 63 165 3.5 11.3 0.00 0.00 0.00 51 1014.8
20260505033355 63 122 3.5 11.3 0.00 0.00 0.00 52 1014.7
20260505033255 63 162 2.6 11.3 0.00 0.00 0.00 52 1014.8
20260505033155 63 222 2.6 11.3 0.00 0.00 0.00 52 1014.9
20260505033055 63 157 2.6 11.3 0.00 0.00 0.00 51 1014.9
20260505032954 63 128 2.6 11.3 0.00 0.00 0.00 51 1014.8
20260505032854 63 120 2.6 7.0 0.00 0.00 0.00 52 1014.9
20260505032755 63 245 2.6 7.0 0.00 0.00 0.00 52 1015.0
20260505032650 63 146 2.6 7.8 0.00 0.00 0.00 51 1015.0
20260505032549 63 140 2.6 7.8 0.00 0.00 0.00 51 1015.1
20260505032446 63 143 2.6 7.8 0.00 0.00 0.00 51 1015.1
20260505032348 63 292 2.6 7.8 0.00 0.00 0.00 51 1015.1
20260505032247 63 151 3.5 12.2 0.00 0.00 0.00 51 1015.1
20260505032143 63 150 3.5 12.2 0.00 0.00 0.00 51 1015.1
20260505032040 63 132 3.5 12.2 0.00 0.00 0.00 51 1015.1
20260505031942 63 169 3.5 12.2 0.00 0.00 0.00 51 1015.3
20260505031841 63 141 3.5 12.2 0.00 0.00 0.00 51 1015.1
20260505031741 63 135 3.5 12.2 0.00 0.00 0.00 51 1015.3
20260505031635 63 185 3.5 12.2 0.00 0.00 0.00 51 1015.1
20260505031535 63 130 3.5 12.2 0.00 0.00 0.00 51 1015.1
20260505031435 63 153 3.5 12.2 0.00 0.00 0.00 51 1015.1
20260505031334 63 209 3.5 12.2 0.00 0.00 0.00 51 1015.1
20260505031231 63 181 3.5 13.0 0.00 0.00 0.00 51 1015.1
20260505031125 63 190 3.5 13.0 0.00 0.00 0.00 51 1015.3
20260505031025 63 142 4.3 13.0 0.00 0.00 0.00 51 1015.3
20260505030926 63 142 4.3 13.0 0.00 0.00 0.00 51 1015.1
20260505030825 63 118 3.5 13.0 0.00 0.00 0.00 52 1015.1
20260505030726 63 162 3.5 13.0 0.00 0.00 0.00 52 1015.1
20260505030624 63 137 3.5 13.0 0.00 0.00 0.00 52 1015.1
20260505030522 63 169 3.5 13.0 0.00 0.00 0.00 52 1015.1
20260505030422 63 82 4.3 13.0 0.00 0.00 0.00 51 1015.1
20260505030323 63 221 3.5 13.0 0.00 0.00 0.00 52 1015.1
20260505030223 63 157 3.5 11.3 0.00 0.00 0.00 52 1015.1
20260505030123 63 157 3.5 12.2 0.00 0.00 0.00 52 1015.1
20260505030023 63 105 3.5 12.2 0.00 0.00 0.00 51 1015.3
20260505025923 63 243 3.5 12.2 0.00 0.00 0.00 52 1015.3
20260505025823 63 161 3.5 12.2 0.00 0.00 0.00 52 1015.3
20260505025724 63 192 3.5 12.2 0.00 0.00 0.00 52 1015.3
20260505025623 63 167 3.5 12.2 0.00 0.00 0.00 52 1015.3
20260505025524 63 207 3.5 12.2 0.00 0.00 0.00 52 1015.1
20260505025422 63 159 3.5 12.2 0.00 0.00 0.00 52 1015.3
20260505025321 63 157 3.5 12.2 0.00 0.00 0.00 52 1015.3
20260505025220 63 142 3.5 12.2 0.00 0.00 0.00 52 1015.3
20260505025122 62 78 3.5 10.4 0.00 0.00 0.00 52 1015.3
20260505025018 62 191 4.3 13.0 0.00 0.00 0.00 52 1015.3
20260505024919 62 128 4.3 13.0 0.00 0.00 0.00 52 1015.3
20260505024819 62 121 4.3 13.0 0.00 0.00 0.00 52 1015.3
20260505024718 62 159 4.3 13.0 0.00 0.00 0.00 52 1015.3
20260505024619 62 195 4.3 13.0 0.00 0.00 0.00 52 1015.3
20260505024520 62 173 3.5 13.0 0.00 0.00 0.00 52 1015.3
20260505024419 62 160 3.5 13.0 0.00 0.00 0.00 52 1015.3
20260505024319 62 146 4.3 13.0 0.00 0.00 0.00 52 1015.3
20260505024214 62 190 4.3 13.0 0.00 0.00 0.00 51 1015.4
20260505024115 62 147 4.3 13.0 0.00 0.00 0.00 52 1015.3
20260505024015 62 164 3.5 11.3 0.00 0.00 0.00 52 1015.3
20260505023913 62 159 4.3 11.3 0.00 0.00 0.00 52 1015.3
20260505023812 62 185 4.3 11.3 0.00 0.00 0.00 52 1015.3
20260505023712 62 121 4.3 11.3 0.00 0.00 0.00 52 1015.3
20260505023611 62 135 4.3 11.3 0.00 0.00 0.00 52 1015.4
20260505023512 62 117 4.3 11.3 0.00 0.00 0.00 52 1015.3
20260505023411 62 184 4.3 10.4 0.00 0.00 0.00 52 1015.3
20260505023310 62 128 4.3 10.4 0.00 0.00 0.00 52 1015.3
20260505023211 62 149 4.3 10.4 0.00 0.00 0.00 52 1015.1
20260505023112 62 157 4.3 10.4 0.00 0.00 0.00 51 1015.3
20260505023003 62 157 4.3 10.4 0.00 0.00 0.00 51 1015.3
20260505022903 62 152 4.3 10.4 0.00 0.00 0.00 51 1015.3
20260505022803 62 134 4.3 8.7 0.00 0.00 0.00 52 1015.3
20260505022702 62 182 4.3 8.7 0.00 0.00 0.00 52 1015.3
20260505022603 62 152 4.3 8.7 0.00 0.00 0.00 52 1015.3
20260505022504 62 114 4.3 8.7 0.00 0.00 0.00 52 1015.3
20260505022402 62 204 4.3 8.7 0.00 0.00 0.00 52 1015.4
20260505022304 62 163 4.3 8.7 0.00 0.00 0.00 52 1015.3
20260505022202 62 144 4.3 9.6 0.00 0.00 0.00 51 1015.3
20260505022103 62 172 4.3 9.6 0.00 0.00 0.00 52 1015.3
20260505022003 62 175 3.5 9.6 0.00 0.00 0.00 52 1015.3
20260505021903 62 138 3.5 9.6 0.00 0.00 0.00 51 1015.4
20260505021804 62 134 3.5 9.6 0.00 0.00 0.00 51 1015.3
20260505021703 62 162 3.5 9.6 0.00 0.00 0.00 52 1015.4
20260505021603 62 142 3.5 9.6 0.00 0.00 0.00 52 1015.3
20260505021502 62 137 3.5 9.6 0.00 0.00 0.00 52 1015.3
20260505021402 62 166 3.5 9.6 0.00 0.00 0.00 51 1015.3
20260505021302 62 143 3.5 9.6 0.00 0.00 0.00 52 1015.4
20260505021202 62 178 3.5 7.8 0.00 0.00 0.00 52 1015.4
20260505021102 62 178 3.5 7.8 0.00 0.00 0.00 52 1015.1
20260505021003 62 163 3.5 7.8 0.00 0.00 0.00 52 1015.3
20260505020904 62 156 3.5 7.8 0.00 0.00 0.00 52 1015.3
20260505020802 62 167 3.5 7.8 0.00 0.00 0.00 52 1015.3
20260505020703 62 161 3.5 7.8 0.00 0.00 0.00 52 1015.4
20260505020602 62 161 3.5 7.8 0.00 0.00 0.00 52 1015.3
20260505020504 62 157 3.5 7.0 0.00 0.00 0.00 52 1015.3
20260505020402 62 161 3.5 7.0 0.00 0.00 0.00 52 1015.3
20260505020302 62 155 3.5 6.1 0.00 0.00 0.00 52 1015.3
20260505020203 62 154 3.5 6.1 0.00 0.00 0.00 52 1015.3
20260505020004 62 149 3.5 7.0 0.00 0.00 0.00 52 1015.3
20260505015904 62 159 3.5 7.0 0.00 0.00 0.00 52 1015.3
20260505015804 62 156 3.5 7.0 0.00 0.00 0.00 52 1015.1
20260505015659 62 130 3.5 7.0 0.00 0.00 0.00 52 1015.3
20260505015558 62 144 3.5 7.0 0.00 0.00 0.00 52 1015.1
20260505015459 62 159 3.5 7.0 0.00 0.00 0.00 52 1015.3
20260505015358 62 147 3.5 7.0 0.00 0.00 0.00 52 1015.1
20260505015259 62 148 3.5 7.0 0.00 0.00 0.00 51 1015.3
20260505015200 62 163 3.5 7.0 0.00 0.00 0.00 52 1015.1
20260505015058 62 155 3.5 7.0 0.00 0.00 0.00 52 1015.1
20260505015000 62 171 3.5 7.0 0.00 0.00 0.00 52 1015.3
20260505014859 62 157 3.5 6.1 0.00 0.00 0.00 52 1015.1
20260505014759 62 171 3.5 6.1 0.00 0.00 0.00 52 1015.3
20260505014700 62 150 3.5 6.1 0.00 0.00 0.00 52 1015.1
20260505014559 62 150 3.5 6.1 0.00 0.00 0.00 52 1015.1
20260505014458 62 148 3.5 6.1 0.00 0.00 0.00 52 1015.1
20260505014359 62 158 3.5 7.8 0.00 0.00 0.00 51 1015.0
20260505014259 62 155 3.5 7.8 0.00 0.00 0.00 52 1015.1
20260505014159 62 164 3.5 7.8 0.00 0.00 0.00 52 1015.0
20260505014058 62 186 3.5 7.8 0.00 0.00 0.00 52 1015.1
20260505014000 62 167 3.5 7.8 0.00 0.00 0.00 51 1015.0
20260505013858 62 162 3.5 7.8 0.00 0.00 0.00 51 1015.0
20260505013759 62 164 3.5 7.8 0.00 0.00 0.00 52 1015.1
20260505013658 62 167 3.5 7.8 0.00 0.00 0.00 51 1015.1
20260505013558 62 171 3.5 7.8 0.00 0.00 0.00 51 1015.0
20260505013500 62 178 3.5 7.8 0.00 0.00 0.00 51 1015.1
20260505013358 62 153 3.5 6.1 0.00 0.00 0.00 51 1015.1
20260505013258 62 165 3.5 6.1 0.00 0.00 0.00 51 1015.0
20260505013200 62 150 3.5 6.1 0.00 0.00 0.00 51 1015.0
20260505013058 63 171 3.5 6.1 0.00 0.00 0.00 51 1015.0
20260505012958 63 171 3.5 6.1 0.00 0.00 0.00 51 1015.0
20260505012859 63 181 3.5 6.1 0.00 0.00 0.00 51 1015.0
20260505012758 63 160 3.5 6.1 0.00 0.00 0.00 51 1014.9
20260505012659 63 160 3.5 6.1 0.00 0.00 0.00 51 1014.9
20260505012558 63 159 3.5 7.0 0.00 0.00 0.00 51 1014.8
20260505012459 63 159 3.5 7.0 0.00 0.00 0.00 50 1014.8
20260505012355 63 163 3.5 7.0 0.00 0.00 0.00 51 1014.9
20260505012254 63 154 3.5 7.0 0.00 0.00 0.00 50 1014.9
20260505012155 63 153 3.5 7.0 0.00 0.00 0.00 50 1014.9
20260505012055 63 160 3.5 7.0 0.00 0.00 0.00 50 1014.8
20260505011955 63 147 3.5 7.0 0.00 0.00 0.00 50 1014.8
20260505011854 63 165 3.5 7.0 0.00 0.00 0.00 50 1014.8
20260505011754 63 157 3.5 7.0 0.00 0.00 0.00 50 1014.9
20260505011655 63 153 3.5 7.0 0.00 0.00 0.00 50 1015.0
20260505011555 63 153 3.5 7.0 0.00 0.00 0.00 50 1014.9
20260505011455 63 148 3.5 7.8 0.00 0.00 0.00 50 1014.9
20260505011354 63 188 3.5 7.8 0.00 0.00 0.00 50 1014.9
20260505011254 63 142 3.5 7.8 0.00 0.00 0.00 50 1014.8
20260505011154 63 148 3.5 7.8 0.00 0.00 0.00 50 1014.9
20260505011054 63 159 3.5 7.8 0.00 0.00 0.00 50 1014.8
20260505010955 63 161 3.5 7.8 0.00 0.00 0.00 50 1014.8
20260505010855 63 170 3.5 7.8 0.00 0.00 0.00 50 1014.8
20260505010754 63 166 3.5 7.8 0.00 0.00 0.00 50 1014.8
20260505010655 63 181 3.5 7.8 0.00 0.00 0.00 50 1014.8
20260505010554 63 161 2.6 7.8 0.00 0.00 0.00 50 1014.7
20260505010455 63 155 2.6 7.0 0.00 0.00 0.00 50 1014.8
20260505010354 64 146 2.6 6.1 0.00 0.00 0.00 50 1014.7
20260505010255 64 144 2.6 6.1 0.00 0.00 0.00 49 1014.8
20260505010154 64 155 2.6 6.1 0.00 0.00 0.00 50 1014.8
20260505010054 64 184 2.6 6.1 0.00 0.00 0.00 50 1014.8
20260505005956 64 165 1.7 6.1 0.00 0.00 0.00 49 1014.8
20260505005855 64 145 1.7 6.1 0.00 0.00 0.00 49 1014.8
20260505005755 64 185 1.7 6.1 0.00 0.00 0.00 49 1014.8
20260505005655 64 164 1.7 6.1 0.00 0.00 0.00 49 1014.7
20260505005555 64 164 1.7 6.1 0.00 0.00 0.00 49 1014.8
20260505005454 64 164 1.7 6.1 0.00 0.00 0.00 49 1014.7
20260505005355 64 164 1.7 6.1 0.00 0.00 0.00 49 1014.6
20260505005254 64 165 1.7 6.1 0.00 0.00 0.00 49 1014.7
20260505005156 64 173 1.7 5.2 0.00 0.00 0.00 48 1014.7
20260505005050 64 175 1.7 5.2 0.00 0.00 0.00 49 1014.7
20260505004951 64 175 1.7 5.2 0.00 0.00 0.00 49 1014.7
20260505004850 64 175 1.7 5.2 0.00 0.00 0.00 49 1014.6
20260505004750 64 175 1.7 5.2 0.00 0.00 0.00 48 1014.7
20260505004652 64 175 1.7 5.2 0.00 0.00 0.00 48 1014.6
20260505004550 64 169 1.7 5.2 0.00 0.00 0.00 48 1014.6
20260505004451 64 196 1.7 4.3 0.00 0.00 0.00 48 1014.6
20260505004350 64 192 1.7 4.3 0.00 0.00 0.00 49 1014.6
20260505004250 64 178 1.7 4.3 0.00 0.00 0.00 49 1014.6
20260505004150 64 178 1.7 4.3 0.00 0.00 0.00 49 1014.6
20260505004050 65 178 1.7 4.3 0.00 0.00 0.00 48 1014.5
20260505003952 65 182 2.6 4.3 0.00 0.00 0.00 48 1014.6
20260505003850 65 182 2.6 4.3 0.00 0.00 0.00 48 1014.6
20260505003752 65 188 2.6 4.3 0.00 0.00 0.00 48 1014.5
20260505003650 65 188 2.6 4.3 0.00 0.00 0.00 48 1014.5
20260505003550 65 188 2.6 4.3 0.00 0.00 0.00 48 1014.5
20260505003451 65 178 2.6 6.1 0.00 0.00 0.00 48 1014.5
20260505003350 65 178 2.6 7.0 0.00 0.00 0.00 48 1014.5
20260505003250 65 182 2.6 7.0 0.00 0.00 0.00 48 1014.5
20260505003151 65 182 2.6 7.0 0.00 0.00 0.00 48 1014.5
20260505003050 65 193 2.6 7.0 0.00 0.00 0.00 48 1014.5
20260505002951 65 193 2.6 7.0 0.00 0.00 0.00 48 1014.5
20260505002850 65 165 2.6 7.0 0.00 0.00 0.00 48 1014.4
20260505002751 65 148 2.6 7.0 0.00 0.00 0.00 47 1014.5
20260505002650 65 169 2.6 7.0 0.00 0.00 0.00 48 1014.4
20260505002552 65 167 2.6 7.0 0.00 0.00 0.00 47 1014.4
20260505002446 65 174 2.6 7.0 0.00 0.00 0.00 47 1014.5
20260505002344 65 194 3.5 6.1 0.00 0.00 0.00 47 1014.4
20260505002245 65 194 3.5 6.1 0.00 0.00 0.00 47 1014.4
20260505002145 65 184 3.5 6.1 0.00 0.00 0.00 47 1014.5
20260505002045 65 197 3.5 6.1 0.00 0.00 0.00 47 1014.4
20260505001942 65 175 3.5 7.0 0.00 0.00 0.00 47 1014.4
20260505001842 65 164 3.5 7.0 0.00 0.00 0.00 47 1014.4
20260505001741 65 177 3.5 7.0 0.00 0.00 0.00 47 1014.4
20260505001640 66 150 3.5 7.0 0.00 0.00 0.00 47 1014.4
20260505001540 66 169 3.5 7.0 0.00 0.00 0.00 47 1014.4
20260505001442 66 171 2.6 7.0 0.00 0.00 0.00 47 1014.4
20260505001340 66 171 2.6 7.0 0.00 0.00 0.00 47 1014.4
20260505001241 66 155 2.6 7.0 0.00 0.00 0.00 47 1014.3
20260505001140 66 153 2.6 7.0 0.00 0.00 0.00 47 1014.3
20260505001040 66 209 3.5 7.0 0.00 0.00 0.00 47 1014.4
20260505000940 66 163 3.5 7.0 0.00 0.00 0.00 47 1014.3
20260505000840 66 210 3.5 7.0 0.00 0.00 0.00 47 1014.3
20260505000740 66 161 3.5 8.7 0.00 0.00 0.00 47 1014.4
20260505000638 66 184 3.5 8.7 0.00 0.00 0.00 46 1014.4
20260505000539 66 171 3.5 8.7 0.00 0.00 0.00 47 1014.3
20260505000436 66 170 3.5 8.7 0.00 0.00 0.00 46 1014.3
20260505000337 66 176 3.5 8.7 0.00 0.00 0.00 47 1014.3
20260505000234 67 145 3.5 8.7 0.00 0.00 0.00 46 1014.3
20260505000136 67 159 3.5 8.7 0.00 0.00 0.00 47 1014.3
20260505000034 67 154 3.5 8.7 0.00 0.00 0.00 47 1014.3
20260504235934 67 124 3.5 8.7 0.00 0.00 0.00 46 1014.3
20260504235835 67 169 3.5 8.7 0.00 0.00 0.00 46 1014.2
20260504235733 67 196 3.5 7.8 0.00 0.00 0.00 46 1014.2
20260504235632 67 173 3.5 7.8 0.00 0.00 0.00 47 1014.2
20260504235532 67 175 3.5 7.8 0.00 0.00 0.00 46 1014.1
20260504235432 67 136 3.5 7.0 0.00 0.00 0.00 46 1014.2
20260504235332 67 147 2.6 7.0 0.00 0.00 0.00 46 1014.1
20260504235233 67 163 2.6 7.0 0.00 0.00 0.00 47 1014.1
20260504235131 67 170 2.6 7.0 0.00 0.00 0.00 47 1014.1
20260504235030 67 173 2.6 7.0 0.00 0.00 0.00 47 1014.2
20260504234930 67 175 2.6 7.0 0.00 0.00 0.00 47 1014.1
20260504234830 67 181 2.6 7.0 0.00 0.00 0.00 46 1014.1
20260504234731 68 165 2.6 7.0 0.00 0.00 0.00 46 1014.1
20260504234631 68 169 2.6 7.0 0.00 0.00 0.00 47 1014.1
20260504234528 68 151 2.6 7.0 0.00 0.00 0.00 46 1014.1
20260504234430 68 167 1.7 5.2 0.00 0.00 0.00 46 1014.0
20260504234328 68 170 1.7 5.2 0.00 0.00 0.00 46 1014.0
20260504234229 68 171 1.7 5.2 0.00 0.00 0.00 46 1014.1
20260504234126 68 168 0.9 5.2 0.00 0.00 0.00 46 1014.0
20260504234027 68 156 0.9 5.2 0.00 0.00 0.00 46 1014.1
20260504233925 68 159 0.9 4.3 0.00 0.00 0.00 45 1014.0
20260504233824 68 172 0.9 4.3 0.00 0.00 0.00 45 1014.0
20260504233724 68 174 0.9 4.3 0.00 0.00 0.00 45 1014.0
20260504233625 68 173 0.0 4.3 0.00 0.00 0.00 45 1014.0
20260504233525 68 170 0.0 3.5 0.00 0.00 0.00 45 1014.1
20260504233425 69 182 0.0 1.7 0.00 0.00 0.00 45 1014.0
20260504233319 69 136 0.0 0.0 0.00 0.00 0.00 45 1013.9
20260504233218 69 195 0.0 0.0 0.00 0.00 0.00 45 1014.0
20260504233119 69 168 0.0 0.0 0.00 0.00 0.00 45 1014.0
20260504233018 69 183 0.0 0.0 0.00 0.00 0.00 45 1014.0
20260504232919 69 163 0.0 0.0 0.00 0.00 0.00 44 1014.0
20260504232814 69 143 0.0 0.0 0.00 0.00 0.00 44 1014.0
20260504232715 69 171 0.0 0.0 0.00 0.00 0.00 44 1014.0
20260504232614 69 153 0.0 0.0 0.00 0.00 0.00 44 1014.0
20260504232514 69 174 0.0 0.0 0.00 0.00 0.00 44 1014.0
20260504232412 69 150 0.0 0.0 0.00 0.00 0.00 44 1014.0
20260504232303 69 156 0.0 0.0 0.00 0.00 0.00 45 1014.0
20260504232202 69 172 0.0 0.0 0.00 0.00 0.00 44 1014.0
20260504232102 69 170 0.0 0.0 0.00 0.00 0.00 43 1013.9
20260504232003 69 161 0.0 0.0 0.00 0.00 0.00 44 1014.0
20260504231903 69 171 0.0 0.0 0.00 0.00 0.00 44 1013.9
20260504231758 69 165 0.0 0.0 0.00 0.00 0.00 43 1013.9
20260504231700 70 179 0.0 0.0 0.00 0.00 0.00 43 1013.9
20260504231558 70 178 0.0 0.0 0.00 0.00 0.00 43 1013.9
20260504231459 70 182 0.0 0.0 0.00 0.00 0.00 43 1014.0
20260504231356 70 167 0.0 0.0 0.00 0.00 0.00 44 1013.9
20260504231258 70 146 0.0 0.0 0.00 0.00 0.00 44 1013.9
20260504231155 70 142 0.0 0.0 0.00 0.00 0.00 43 1013.9
20260504231052 70 172 0.0 0.0 0.00 0.00 0.00 43 1013.9
20260504230953 70 189 0.0 0.0 0.00 0.00 0.00 43 1013.9
20260504230851 70 173 0.0 0.0 0.00 0.00 0.00 43 1013.9
20260504230740 70 174 0.0 0.0 0.00 0.00 0.00 43 1013.9
20260504230639 70 173 0.0 0.0 0.00 0.00 0.00 42 1013.8
20260504230541 70 175 0.0 0.0 0.00 0.00 0.00 43 1013.8
20260504230441 70 202 0.0 0.0 0.00 0.00 0.00 43 1013.9
20260504230340 70 163 0.0 0.0 0.00 0.00 0.00 43 1013.9
20260504230240 70 157 0.0 0.0 0.00 0.00 0.00 43 1013.9
20260504230138 70 252 0.0 0.0 0.00 0.00 0.00 42 1013.9
20260504230038 70 185 0.0 0.0 0.00 0.00 0.00 43 1013.9
20260504225936 70 117 0.0 0.0 0.00 0.00 0.00 43 1013.9
20260504225835 70 182 0.0 0.0 0.00 0.00 0.00 44 1013.8
20260504225732 70 190 0.0 0.0 0.00 0.00 0.00 44 1013.9
20260504225628 70 191 0.0 0.0 0.00 0.00 0.00 44 1013.8
20260504225529 70 190 0.0 0.0 0.00 0.00 0.00 44 1013.8
20260504225428 70 185 0.0 0.0 0.00 0.00 0.00 43 1013.8
20260504225328 70 148 0.0 0.0 0.00 0.00 0.00 44 1013.8
20260504225222 70 149 0.0 0.0 0.00 0.00 0.00 44 1013.8
20260504225123 70 168 0.0 0.0 0.00 0.00 0.00 44 1013.9
20260504225024 70 168 0.0 0.0 0.00 0.00 0.00 44 1013.9
20260504224922 70 171 0.0 0.0 0.00 0.00 0.00 44 1013.9
20260504224818 70 198 0.0 0.0 0.00 0.00 0.00 44 1013.8
20260504224719 70 151 0.0 0.0 0.00 0.00 0.00 45 1013.9
20260504224616 70 160 0.0 0.0 0.00 0.00 0.00 44 1013.9
20260504224514 70 167 0.0 0.0 0.00 0.00 0.00 45 1013.9
20260504224415 70 132 0.0 0.0 0.00 0.00 0.00 44 1013.9
20260504224312 70 180 0.0 0.0 0.00 0.00 0.00 44 1013.9
20260504224209 70 175 0.0 0.0 0.00 0.00 0.00 44 1013.9
20260504224108 70 109 0.0 0.0 0.00 0.00 0.00 44 1013.9
20260504224007 70 109 0.0 0.0 0.00 0.00 0.00 43 1013.9
20260504223907 70 135 0.0 0.0 0.00 0.00 0.00 43 1013.9
20260504223807 70 145 0.0 0.0 0.00 0.00 0.00 43 1013.9
20260504223657 70 167 0.0 0.0 0.00 0.00 0.00 43 1013.8
20260504223556 70 194 0.0 0.0 0.00 0.00 0.00 43 1013.9
20260504223457 71 196 0.0 0.0 0.00 0.00 0.00 43 1013.8
20260504223355 71 165 0.0 0.0 0.00 0.00 0.00 43 1013.9
20260504223257 71 159 0.0 0.0 0.00 0.00 0.00 44 1013.8
20260504223151 71 168 0.0 0.0 0.00 0.00 0.00 44 1013.9
20260504223052 71 167 0.0 0.0 0.00 0.00 0.00 43 1013.8
20260504222952 71 115 0.0 0.0 0.00 0.00 0.00 42 1013.8
20260504222853 71 132 0.0 0.0 0.00 0.00 0.00 43 1013.7
20260504222751 71 138 0.0 0.0 0.00 0.00 0.00 44 1013.8
20260504222645 71 144 0.0 0.0 0.00 0.00 0.00 43 1013.9
20260504222544 72 142 0.0 0.0 0.00 0.00 0.00 43 1013.7
20260504222445 72 146 0.0 0.0 0.00 0.00 0.00 43 1013.8
20260504222348 72 132 0.0 0.0 0.00 0.00 0.00 43 1013.8
20260504222245 72 198 0.0 0.0 0.00 0.00 0.00 43 1013.8
20260504222138 72 184 0.0 0.0 0.00 0.00 0.00 43 1013.8
20260504222038 72 164 0.0 0.0 0.00 0.00 0.00 43 1013.8
20260504221938 72 165 0.0 0.0 0.00 0.00 0.00 44 1013.8
20260504221837 72 165 0.0 0.0 0.00 0.00 0.00 45 1013.8
20260504221630 72 173 0.0 0.0 0.00 0.00 0.00 42 1013.7
20260504221528 72 221 0.0 0.0 0.00 0.00 0.00 44 1013.8
20260504221428 72 165 0.0 0.0 0.00 0.00 0.00 42 1013.8
20260504221329 72 150 0.0 0.0 0.00 0.00 0.00 42 1013.8
20260504221229 72 174 0.0 0.0 0.00 0.00 0.00 43 1013.8
20260504221128 72 161 0.0 0.0 0.00 0.00 0.00 43 1013.9
20260504221028 72 138 0.0 0.0 0.00 0.00 0.00 42 1013.8
20260504220925 72 197 0.0 0.0 0.00 0.00 0.00 43 1013.8
20260504220824 72 121 0.0 0.0 0.00 0.00 0.00 44 1013.9
20260504220722 72 211 0.0 0.0 0.00 0.00 0.00 44 1013.8
20260504220616 72 167 0.0 0.0 0.00 0.00 0.00 43 1013.8
20260504220516 72 119 0.0 0.0 0.00 0.00 0.00 43 1013.8
20260504220415 72 146 0.0 0.0 0.00 0.00 0.00 42 1013.7
20260504220314 72 183 0.0 0.0 0.00 0.00 0.00 43 1013.9
20260504220213 72 133 0.0 0.0 0.00 0.00 0.00 42 1013.8
20260504220106 72 174 0.0 0.0 0.00 0.00 0.00 43 1013.8
20260504220006 72 140 0.0 0.0 0.00 0.00 0.00 44 1013.8
20260504215906 72 139 0.0 0.0 0.00 0.00 0.00 42 1013.9
20260504215807 72 140 0.0 0.0 0.00 0.00 0.00 43 1013.9
20260504215707 72 219 0.0 0.0 0.00 0.00 0.00 45 1013.8
20260504215602 72 166 0.0 0.0 0.00 0.00 0.00 45 1013.8
20260504215500 72 166 0.0 0.0 0.00 0.00 0.00 44 1013.9
20260504215401 72 158 0.0 0.0 0.00 0.00 0.00 44 1013.9
20260504215300 72 158 0.0 0.0 0.00 0.00 0.00 44 1013.9
20260504215201 73 169 0.0 0.0 0.00 0.00 0.00 43 1013.8
20260504215054 73 121 0.0 0.0 0.00 0.00 0.00 43 1014.0
20260504214954 73 145 0.0 0.0 0.00 0.00 0.00 45 1013.9
20260504214853 73 135 0.0 0.0 0.00 0.00 0.00 44 1013.9
20260504214751 73 153 0.0 0.0 0.00 0.00 0.00 45 1013.9
20260504214651 72 156 0.0 0.0 0.00 0.00 0.00 43 1013.8
20260504214547 72 135 0.0 0.0 0.00 0.00 0.00 45 1013.9
20260504214446 72 134 0.0 0.0 0.00 0.00 0.00 45 1013.9
20260504214347 72 147 0.0 0.0 0.00 0.00 0.00 44 1014.0
20260504214246 72 198 0.0 0.0 0.00 0.00 0.00 44 1013.9
20260504214145 72 148 0.0 0.0 0.00 0.00 0.00 43 1013.9
20260504214045 72 167 0.0 0.0 0.00 0.00 0.00 44 1013.9
20260504213942 72 103 0.0 0.0 0.00 0.00 0.00 44 1013.8
20260504213840 72 155 0.0 0.0 0.00 0.00 0.00 45 1013.9
20260504213740 73 149 0.0 0.0 0.00 0.00 0.00 43 1013.9
20260504213638 73 179 0.0 0.0 0.00 0.00 0.00 45 1013.9
20260504213528 73 163 0.0 0.0 0.00 0.00 0.00 44 1013.9
20260504213428 73 128 0.0 0.0 0.00 0.00 0.00 44 1013.8
20260504213329 73 160 0.0 0.0 0.00 0.00 0.00 44 1013.8
20260504213229 73 152 0.0 0.0 0.00 0.00 0.00 44 1014.0
20260504213129 73 149 0.0 0.0 0.00 0.00 0.00 44 1013.8
20260504213025 73 185 0.0 0.0 0.00 0.00 0.00 44 1013.8
20260504212924 73 217 0.0 0.0 0.00 0.00 0.00 44 1013.9
20260504212825 73 118 0.0 0.0 0.00 0.00 0.00 44 1014.0
20260504212725 73 190 0.0 0.0 0.00 0.00 0.00 43 1013.9
20260504212623 73 169 0.0 0.0 0.00 0.00 0.00 45 1013.9
20260504212518 73 152 0.0 0.0 0.00 0.00 0.00 44 1013.9
20260504212416 73 164 0.0 0.0 0.00 0.00 0.00 44 1013.9
20260504212317 73 158 0.0 0.0 0.00 0.00 0.00 44 1013.9
20260504212216 73 118 0.0 0.0 0.00 0.00 0.00 44 1014.0
20260504212116 73 144 0.0 0.0 0.00 0.00 0.00 44 1014.0
20260504212006 73 161 0.0 0.0 0.00 0.00 0.00 43 1014.0
20260504211906 73 146 0.0 0.0 0.00 0.00 0.00 43 1013.9
20260504211807 73 157 0.0 0.0 0.00 0.00 0.00 45 1014.0
20260504211705 73 166 0.0 0.0 0.00 0.00 0.00 45 1013.9
20260504211606 73 224 0.0 0.0 0.00 0.00 0.00 44 1014.0
20260504211500 73 138 0.0 0.0 0.00 0.00 0.00 44 1013.9
20260504211402 73 222 0.0 0.0 0.00 0.00 0.00 45 1014.0
20260504211300 73 163 0.0 0.0 0.00 0.00 0.00 45 1014.0
20260504211201 73 183 0.0 0.0 0.00 0.00 0.00 45 1014.0
20260504211100 73 149 0.0 0.0 0.00 0.00 0.00 44 1014.0
20260504210958 73 144 0.0 0.0 0.00 0.00 0.00 45 1014.0
20260504210859 73 170 0.0 0.0 0.00 0.00 0.00 44 1014.0
20260504210756 73 158 0.0 0.0 0.00 0.00 0.00 45 1013.9
20260504210656 72 179 0.0 0.0 0.00 0.00 0.00 45 1013.9
20260504210555 72 172 0.0 0.0 0.00 0.00 0.00 45 1014.0
20260504210447 72 173 0.0 0.0 0.00 0.00 0.00 45 1013.9
20260504210344 72 113 0.0 0.0 0.00 0.00 0.00 44 1013.9
20260504210245 72 107 0.0 0.0 0.00 0.00 0.00 45 1013.9
20260504210143 72 135 0.0 0.0 0.00 0.00 0.00 45 1014.0
20260504210044 72 171 0.0 0.0 0.00 0.00 0.00 44 1014.0
20260504205938 72 226 0.0 0.0 0.00 0.00 0.00 45 1014.1
20260504205838 73 151 0.0 0.0 0.00 0.00 0.00 45 1013.9
20260504205739 73 144 0.0 0.0 0.00 0.00 0.00 45 1013.9
20260504205638 73 128 0.0 0.0 0.00 0.00 0.00 44 1013.9
20260504205538 73 117 0.0 0.0 0.00 0.00 0.00 43 1013.9
20260504205435 73 145 0.0 0.0 0.00 0.00 0.00 43 1014.0
20260504205333 73 136 0.0 0.0 0.00 0.00 0.00 43 1014.0
20260504205233 73 121 0.0 0.0 0.00 0.00 0.00 44 1014.1
20260504205132 73 75 0.0 0.0 0.00 0.00 0.00 43 1014.0
20260504205032 73 155 0.0 0.0 0.00 0.00 0.00 42 1014.0
20260504204923 73 137 0.0 0.0 0.00 0.00 0.00 41 1014.0
20260504204823 74 127 0.0 0.0 0.00 0.00 0.00 43 1014.1
20260504204723 74 163 0.0 0.0 0.00 0.00 0.00 42 1014.1
20260504204623 74 154 0.0 0.0 0.00 0.00 0.00 42 1014.0
20260504204522 74 219 0.0 0.0 0.00 0.00 0.00 43 1014.1
20260504204416 74 156 0.0 0.0 0.00 0.00 0.00 42 1014.0
20260504204315 74 130 0.0 0.0 0.00 0.00 0.00 42 1014.0
20260504204215 74 109 0.0 0.0 0.00 0.00 0.00 42 1013.9
20260504204117 74 132 0.0 0.0 0.00 0.00 0.00 42 1014.1
20260504204016 74 128 0.0 0.0 0.00 0.00 0.00 43 1014.1
20260504203916 74 187 0.0 0.0 0.00 0.00 0.00 41 1014.1
20260504203815 74 169 0.0 0.0 0.00 0.00 0.00 42 1014.2
20260504203712 74 173 0.0 0.0 0.00 0.00 0.00 42 1014.1
20260504203612 74 128 0.0 0.0 0.00 0.00 0.00 44 1014.0
20260504203511 74 166 0.0 0.0 0.00 0.00 0.00 42 1014.1
20260504203400 74 148 0.0 0.0 0.00 0.00 0.00 43 1014.1
20260504203301 74 166 0.0 0.0 0.00 0.00 0.00 43 1014.1
20260504203200 74 176 0.0 0.0 0.00 0.00 0.00 43 1014.0
20260504203101 74 188 0.0 0.0 0.00 0.00 0.00 42 1014.1
20260504203000 74 151 0.0 0.0 0.00 0.00 0.00 42 1014.1
20260504202854 74 148 0.0 0.0 0.00 0.00 0.00 41 1014.0
20260504202754 74 240 0.0 0.0 0.00 0.00 0.00 40 1014.1
20260504202655 74 187 0.0 0.0 0.00 0.00 0.00 41 1014.2
20260504202555 74 194 0.0 0.0 0.00 0.00 0.00 41 1014.2
20260504202455 74 178 0.0 0.0 0.00 0.00 0.00 42 1014.1
20260504202351 74 129 0.0 0.0 0.00 0.00 0.00 42 1014.2
20260504202248 74 80 0.0 0.0 0.00 0.00 0.00 40 1014.3
20260504202149 74 223 0.0 0.0 0.00 0.00 0.00 43 1014.3
20260504202048 74 116 0.0 0.0 0.00 0.00 0.00 43 1014.3
20260504201949 74 134 0.0 0.0 0.00 0.00 0.00 43 1014.3
20260504201843 74 140 0.0 0.0 0.00 0.00 0.00 42 1014.3
20260504201743 74 160 0.0 0.0 0.00 0.00 0.00 42 1014.3
20260504201640 74 180 0.0 0.0 0.00 0.00 0.00 41 1014.3
20260504201541 74 167 0.0 0.0 0.00 0.00 0.00 41 1014.4
20260504201438 74 168 0.0 0.0 0.00 0.00 0.00 42 1014.4
20260504201335 74 177 0.0 0.0 0.00 0.00 0.00 45 1014.4
20260504201232 74 177 0.0 0.0 0.00 0.00 0.00 44 1014.3
20260504201132 74 178 0.0 0.0 0.00 0.00 0.00 42 1014.3
20260504201033 74 205 0.0 0.0 0.00 0.00 0.00 41 1014.3
20260504200933 74 322 0.0 0.0 0.00 0.00 0.00 42 1014.3
20260504200826 74 163 0.0 0.0 0.00 0.00 0.00 44 1014.3
20260504200726 74 134 0.0 0.0 0.00 0.00 0.00 42 1014.3
20260504200627 74 146 0.0 0.0 0.00 0.00 0.00 41 1014.4
20260504200527 74 135 0.0 0.0 0.00 0.00 0.00 41 1014.4
20260504200427 74 132 0.0 0.0 0.00 0.00 0.00 42 1014.4
20260504200316 74 153 0.0 0.0 0.00 0.00 0.00 42 1014.3
20260504200216 74 193 0.0 0.0 0.00 0.00 0.00 43 1014.4
20260504200016 74 125 0.0 0.0 0.00 0.00 0.00 42 1014.4
20260504195917 74 173 0.0 0.0 0.00 0.00 0.00 42 1014.5
20260504195812 74 145 0.0 0.0 0.00 0.00 0.00 41 1014.5
20260504195712 74 120 0.0 0.0 0.00 0.00 0.00 42 1014.5
20260504195612 74 144 0.0 0.0 0.00 0.00 0.00 44 1014.5
20260504195513 74 121 0.0 0.0 0.00 0.00 0.00 42 1014.5
20260504195410 74 306 0.0 0.0 0.00 0.00 0.00 41 1014.6
20260504195305 74 156 0.0 0.0 0.00 0.00 0.00 45 1014.6
20260504195205 74 155 0.0 0.0 0.00 0.00 0.00 44 1014.7
20260504195104 74 138 0.0 0.0 0.00 0.00 0.00 43 1014.7
20260504195005 74 123 0.0 0.0 0.00 0.00 0.00 44 1014.7
20260504194903 74 144 0.0 0.0 0.00 0.00 0.00 41 1014.7
20260504194756 74 148 0.0 0.0 0.00 0.00 0.00 42 1014.6
20260504194653 74 112 0.0 0.0 0.00 0.00 0.00 40 1014.6
20260504194553 74 115 0.0 0.0 0.00 0.00 0.00 41 1014.6
20260504194453 75 143 0.0 3.5 0.00 0.00 0.00 40 1014.7
20260504194353 75 162 0.9 4.3 0.00 0.00 0.00 40 1014.7
20260504194248 75 153 0.9 6.1 0.00 0.00 0.00 40 1014.8
20260504194146 75 141 0.9 6.1 0.00 0.00 0.00 41 1014.8
20260504194046 75 192 1.7 6.1 0.00 0.00 0.00 43 1014.7
20260504193947 75 157 1.7 7.8 0.00 0.00 0.00 41 1014.8
20260504193847 75 275 1.7 7.8 0.00 0.00 0.00 41 1014.8
20260504193746 75 283 2.6 7.8 0.00 0.00 0.00 42 1014.8
20260504193644 75 351 2.6 7.8 0.00 0.00 0.00 43 1015.0
20260504193544 75 133 2.6 7.8 0.00 0.00 0.00 41 1014.9
20260504193443 75 136 2.6 7.8 0.00 0.00 0.00 42 1014.9
20260504193340 75 134 2.6 7.8 0.00 0.00 0.00 41 1014.9
20260504193227 75 323 2.6 7.8 0.00 0.00 0.00 39 1014.9
20260504193126 75 317 2.6 7.8 0.00 0.00 0.00 40 1014.9
20260504193026 75 207 1.7 6.1 0.00 0.00 0.00 41 1015.0
20260504192927 75 184 1.7 6.1 0.00 0.00 0.00 40 1014.8
20260504192826 75 231 1.7 6.1 0.00 0.00 0.00 42 1015.0
20260504192722 75 112 1.7 6.1 0.00 0.00 0.00 44 1015.0
20260504192622 75 177 1.7 6.1 0.00 0.00 0.00 43 1015.0
20260504192524 75 101 1.7 6.1 0.00 0.00 0.00 42 1015.0
20260504192422 75 123 1.7 6.1 0.00 0.00 0.00 42 1015.0
20260504192321 74 163 1.7 6.1 0.00 0.00 0.00 43 1015.0
20260504192214 74 155 1.7 7.0 0.00 0.00 0.00 42 1015.1
20260504192114 74 155 2.6 7.0 0.00 0.00 0.00 41 1015.1
20260504192015 74 119 2.6 7.0 0.00 0.00 0.00 45 1015.0
20260504191913 74 187 2.6 7.0 0.00 0.00 0.00 45 1015.1
20260504191815 74 275 1.7 7.0 0.00 0.00 0.00 42 1015.1
20260504191704 74 298 1.7 7.0 0.00 0.00 0.00 42 1015.1
20260504191604 74 299 1.7 7.0 0.00 0.00 0.00 41 1015.1
20260504191504 74 321 1.7 7.0 0.00 0.00 0.00 41 1015.3
20260504191403 74 309 0.9 7.0 0.00 0.00 0.00 44 1015.3
20260504191305 74 146 0.9 5.2 0.00 0.00 0.00 42 1015.1
20260504191158 74 286 0.9 5.2 0.00 0.00 0.00 40 1015.1
20260504191059 74 221 0.0 5.2 0.00 0.00 0.00 41 1015.3
20260504190959 74 355 0.0 3.5 0.00 0.00 0.00 42 1015.3
20260504190859 74 157 0.0 0.9 0.00 0.00 0.00 41 1015.3
20260504190759 74 172 0.0 0.0 0.00 0.00 0.00 42 1015.3
20260504190655 74 146 0.0 0.0 0.00 0.00 0.00 45 1015.4
20260504190555 74 125 0.0 0.0 0.00 0.00 0.00 44 1015.3
20260504190455 74 164 0.0 0.0 0.00 0.00 0.00 44 1015.3
20260504190353 74 148 0.0 0.0 0.00 0.00 0.00 44 1015.3
20260504190253 74 144 0.0 0.0 0.00 0.00 0.00 43 1015.3
20260504190148 74 336 0.0 0.0 0.00 0.00 0.00 44 1015.3
20260504190049 74 105 0.0 4.3 0.00 0.00 0.00 47 1015.3
20260504185947 74 106 0.9 7.0 0.00 0.00 0.00 46 1015.4
20260504185848 74 107 0.9 7.0 0.00 0.00 0.00 43 1015.4
20260504185749 74 96 1.7 7.0 0.00 0.00 0.00 44 1015.3
20260504185649 74 123 1.7 8.7 0.00 0.00 0.00 45 1015.4
20260504185548 74 63 1.7 8.7 0.00 0.00 0.00 45 1015.3
20260504185448 74 34 1.7 8.7 0.00 0.00 0.00 44 1015.4
20260504185345 74 110 2.6 8.7 0.00 0.00 0.00 42 1015.5
20260504185246 74 214 2.6 8.7 0.00 0.00 0.00 42 1015.5
20260504185144 74 212 2.6 8.7 0.00 0.00 0.00 42 1015.4
20260504185045 74 157 2.6 8.7 0.00 0.00 0.00 43 1015.5
20260504184945 74 142 2.6 8.7 0.00 0.00 0.00 45 1015.4
20260504184846 74 164 2.6 8.7 0.00 0.00 0.00 44 1015.5
20260504184743 74 147 2.6 8.7 0.00 0.00 0.00 44 1015.4
20260504184644 74 158 2.6 6.1 0.00 0.00 0.00 45 1015.5
20260504184545 74 312 2.6 6.1 0.00 0.00 0.00 44 1015.5
20260504184449 74 351 2.6 6.1 0.00 0.00 0.00 44 1015.5
20260504184341 74 0 2.6 6.1 0.00 0.00 0.00 43 1015.4
20260504184239 74 290 2.6 6.1 0.00 0.00 0.00 45 1015.5
20260504184141 74 55 1.7 6.1 0.00 0.00 0.00 47 1015.4
20260504184039 74 158 1.7 6.1 0.00 0.00 0.00 45 1015.5
20260504183934 74 74 1.7 6.1 0.00 0.00 0.00 44 1015.4
20260504183834 74 173 0.9 6.1 0.00 0.00 0.00 44 1015.5
20260504183734 74 176 0.9 6.1 0.00 0.00 0.00 46 1015.5
20260504183634 74 178 0.9 6.1 0.00 0.00 0.00 44 1015.4
20260504183533 74 104 0.0 6.1 0.00 0.00 0.00 46 1015.4
20260504183431 74 161 0.0 3.5 0.00 0.00 0.00 46 1015.4
20260504183332 73 160 0.0 0.9 0.00 0.00 0.00 45 1015.5
20260504183231 73 160 0.0 0.0 0.00 0.00 0.00 46 1015.5
20260504183131 73 165 0.0 0.0 0.00 0.00 0.00 46 1015.5
20260504183030 73 140 0.0 0.0 0.00 0.00 0.00 45 1015.6
20260504182931 73 303 0.0 0.0 0.00 0.00 0.00 43 1015.6
20260504182827 73 303 0.0 0.0 0.00 0.00 0.00 43 1015.6
20260504182729 73 302 0.0 0.0 0.00 0.00 0.00 43 1015.5
20260504182626 73 275 0.0 0.0 0.00 0.00 0.00 43 1015.7
20260504182526 73 256 0.0 0.0 0.00 0.00 0.00 44 1015.6
20260504182425 73 286 0.0 0.0 0.00 0.00 0.00 44 1015.7
20260504182325 73 319 0.0 0.0 0.00 0.00 0.00 45 1015.6
20260504182225 73 225 0.0 0.0 0.00 0.00 0.00 45 1015.6
20260504182124 73 82 0.0 0.0 0.00 0.00 0.00 45 1015.7
20260504182025 73 62 0.0 0.0 0.00 0.00 0.00 46 1015.7
20260504181821 73 148 0.0 0.0 0.00 0.00 0.00 45 1015.7
20260504181719 73 117 0.0 0.0 0.00 0.00 0.00 46 1015.7
20260504181619 73 84 0.0 0.0 0.00 0.00 0.00 44 1015.7
20260504181518 73 244 0.0 0.0 0.00 0.00 0.00 44 1015.7
20260504181418 73 91 0.0 0.0 0.00 0.00 0.00 45 1015.8
20260504181319 73 185 0.0 0.0 0.00 0.00 0.00 45 1015.8
20260504181215 73 298 0.0 0.0 0.00 0.00 0.00 45 1015.7
20260504181114 73 271 0.0 0.0 0.00 0.00 0.00 44 1015.7
20260504181015 73 244 0.0 0.0 0.00 0.00 0.00 46 1015.7
20260504180913 73 312 0.0 0.0 0.00 0.00 0.00 47 1015.7
20260504180813 73 26 0.0 0.0 0.00 0.00 0.00 46 1015.7
20260504180709 73 143 0.0 0.0 0.00 0.00 0.00 46 1015.7
20260504180607 72 224 0.0 0.0 0.00 0.00 0.00 44 1015.7
20260504180507 72 243 0.0 0.0 0.00 0.00 0.00 45 1015.8
20260504180409 72 48 0.0 0.0 0.00 0.00 0.00 45 1015.7
20260504180307 72 273 0.0 0.0 0.00 0.00 0.00 46 1015.7
20260504180205 72 355 0.0 0.0 0.00 0.00 0.00 47 1015.7
20260504180105 72 355 0.0 0.0 0.00 0.00 0.00 45 1015.7
20260504180005 72 117 0.0 0.0 0.00 0.00 0.00 45 1015.8
20260504175905 72 342 0.0 0.0 0.00 0.00 0.00 44 1015.8
20260504175802 72 341 0.0 0.0 0.00 0.00 0.00 45 1015.8
20260504175704 72 341 0.0 0.0 0.00 0.00 0.00 46 1015.8
20260504175601 71 341 0.0 0.0 0.00 0.00 0.00 46 1015.8
20260504175500 71 341 0.0 0.0 0.00 0.00 0.00 44 1015.7
20260504175401 71 327 0.0 0.0 0.00 0.00 0.00 44 1015.8
20260504175301 72 313 0.0 0.0 0.00 0.00 0.00 45 1015.7
20260504175202 72 296 0.0 0.0 0.00 0.00 0.00 44 1015.8
20260504175059 72 315 0.0 0.0 0.00 0.00 0.00 47 1015.8
20260504174958 72 334 0.0 0.0 0.00 0.00 0.00 45 1015.9
20260504174858 72 227 0.0 0.0 0.00 0.00 0.00 45 1015.9
20260504174759 71 166 0.0 0.0 0.00 0.00 0.00 45 1015.9
20260504174659 71 178 0.0 0.0 0.00 0.00 0.00 46 1015.9
20260504174558 71 317 0.0 0.0 0.00 0.00 0.00 46 1015.9
20260504174453 71 309 0.0 0.0 0.00 0.00 0.00 45 1015.9
20260504174351 71 278 0.0 0.0 0.00 0.00 0.00 44 1015.9
20260504174251 71 163 0.0 0.0 0.00 0.00 0.00 45 1015.9
20260504174150 71 169 0.0 0.0 0.00 0.00 0.00 46 1016.0
20260504174052 71 67 0.0 0.0 0.00 0.00 0.00 47 1015.9
20260504173944 71 302 0.0 0.0 0.00 0.00 0.00 45 1015.9
20260504173844 71 312 0.0 0.0 0.00 0.00 0.00 45 1016.0
20260504173744 71 317 0.0 0.0 0.00 0.00 0.00 45 1016.0
20260504173645 71 169 0.0 0.0 0.00 0.00 0.00 46 1015.9
20260504173545 71 237 0.0 0.0 0.00 0.00 0.00 44 1016.0
20260504173441 71 224 0.0 0.0 0.00 0.00 0.00 45 1015.9
20260504173338 71 212 0.0 0.0 0.00 0.00 0.00 46 1016.0
20260504173238 71 44 0.0 0.0 0.00 0.00 0.00 46 1016.0
20260504173139 71 324 0.0 0.0 0.00 0.00 0.00 46 1016.0
20260504173038 71 336 0.0 0.0 0.00 0.00 0.00 47 1016.0
20260504172939 71 281 0.0 0.0 0.00 0.00 0.00 45 1016.0
20260504172838 71 329 0.0 0.0 0.00 0.00 0.00 45 1015.9
20260504172737 71 311 0.0 0.0 0.00 0.00 0.00 45 1016.0
20260504172636 71 331 0.0 0.0 0.00 0.00 0.00 45 1016.1
20260504172536 71 302 0.0 0.0 0.00 0.00 0.00 45 1016.0
20260504172434 71 288 0.0 0.0 0.00 0.00 0.00 45 1016.1
20260504172335 71 296 0.0 0.0 0.00 0.00 0.00 44 1016.1
20260504172232 72 286 0.0 0.0 0.00 0.00 0.00 44 1016.0
20260504172133 72 225 0.0 0.0 0.00 0.00 0.00 46 1016.1
20260504172033 71 169 0.0 0.0 0.00 0.00 0.00 44 1016.0
20260504171932 71 199 0.0 0.0 0.00 0.00 0.00 45 1016.0
20260504171833 71 82 0.0 0.0 0.00 0.00 0.00 46 1016.0
20260504171734 71 128 0.0 0.0 0.00 0.00 0.00 46 1016.0
20260504171630 71 297 0.0 0.0 0.00 0.00 0.00 46 1015.9
20260504171532 71 277 0.0 0.0 0.00 0.00 0.00 45 1016.0
20260504171430 71 82 0.0 0.0 0.00 0.00 0.00 45 1016.0
20260504171332 71 321 0.0 0.0 0.00 0.00 0.00 46 1016.0
20260504171228 71 346 0.0 0.0 0.00 0.00 0.00 44 1016.0
20260504171126 71 299 0.0 0.0 0.00 0.00 0.00 45 1016.1
20260504171026 71 167 0.0 0.0 0.00 0.00 0.00 45 1016.1
20260504170925 71 301 0.0 0.0 0.00 0.00 0.00 45 1016.0
20260504170825 71 355 0.0 0.0 0.00 0.00 0.00 45 1016.0
20260504170720 71 329 0.0 0.0 0.00 0.00 0.00 47 1016.1
20260504170621 71 328 0.0 0.0 0.00 0.00 0.00 47 1016.0
20260504170521 71 346 0.0 0.0 0.00 0.00 0.00 47 1016.0
20260504170421 70 346 0.0 0.0 0.00 0.00 0.00 48 1016.0
20260504170319 70 281 0.0 0.0 0.00 0.00 0.00 49 1016.1
20260504170219 70 207 0.0 0.0 0.00 0.00 0.00 47 1016.1
20260504170117 70 187 0.0 0.0 0.00 0.00 0.00 48 1016.0
20260504160420 68 283 0.0 0.0 0.00 0.00 0.00 47 1016.9
20260504160319 68 306 0.0 0.0 0.00 0.00 0.00 50 1016.7
20260504160220 68 319 0.0 0.0 0.00 0.00 0.00 50 1016.9
20260504160119 68 321 0.0 0.0 0.00 0.00 0.00 50 1016.9
20260504151107 66 334 0.0 0.0 0.00 0.00 0.00 46 1017.8
20260504151008 66 315 0.0 0.0 0.00 0.00 0.00 47 1017.8
20260504150907 66 298 0.0 0.0 0.00 0.00 0.00 46 1017.8
20260504150808 66 355 0.0 0.0 0.00 0.00 0.00 48 1017.8
20260504150707 66 308 0.0 0.0 0.00 0.00 0.00 46 1017.9
20260504150606 66 299 0.0 0.0 0.00 0.00 0.00 47 1017.8
20260504150508 66 294 0.0 0.0 0.00 0.00 0.00 46 1017.7
20260504150408 66 257 0.0 0.0 0.00 0.00 0.00 47 1017.8
20260504150308 66 303 0.0 0.0 0.00 0.00 0.00 47 1017.8
20260504150207 66 308 0.0 0.0 0.00 0.00 0.00 47 1017.7
20260504150107 66 275 0.0 0.0 0.00 0.00 0.00 46 1017.7